To NAV CANADA Home Page Login to a new session Search on AWWS site Feedback and Comments Disclaimer Vers la page française équivalente Tips FAQ What's new on the site To the Forecasts and Observations / NOTAM section To "File a Flight Plan" website Publications and other links Update of the User's profile FIC Telephone Numbers My Weather Data Folder Route Weather Data Regional Weather Data Local Weather Data To the Forecasts and Observations / NOTAM section
Request Generated 02/12/2016 at 13:57:31 UTC . Weather information available at that time is displayed.

METAR/TAF

FARO/YT    

LWIS CZFA 121300Z AUTO 11008G16KT M09/M11 A2974=
LWIS CZFA 121200Z AUTO 12006KT 070V170 M08/M10 A2977=
LWIS CZFA 121100Z AUTO 13013G22KT M07/M10 A2978=

*** REMARK        : Forecast period has ended; this was the last TAF issued
*** REMARQUE : La période de prévision est échue; ceci était le dernier TAF qui a été émis
TAF CZFA 111738Z 1118/1123 15010KT P6SM FEW150
RMK NXT FCST WILL BE ISSUED AT 121645Z=
Your time UTC time
Weather data provided by Environment Canada and NAV CANADA